Current weather by "City, St" or "zip code"  
 

Current Conditions: Lompoc, Lompoc Airport, CA

Fair


45.0 F

Last Updated on May 21 2022, 1:56 am PDT
Humidity: 90%
Wind Speed: NW 3.5 mph
Barometer 29.89 in
Dewpoint: 42.1 F
Visibility: 10.00 mi
Precip: --
Heat Index: NA
Wind Chill: NA
Current conditions at:

Lompoc, Lompoc Airport, CA (KLPC)

Lat: 34.66667 Lon: 120.46667

Local Radar Image active severe weather and emergency alerts image image weather storm and storm spotter reports image weather observation monitoring service image
Local
Radar
Active
Alerts
Storm Reports Obs
Monitoring

Sign-up For Email & Text Message Weather Alert Notification Services



Advertise Here

Observation History for Lompoc, Lompoc Airport, CA


Time Wind
(mph)
Vis
(mi)
Weather Precip (in) Temperature (F) Relative
Humidity
Wind
Chill
(F)
Heat
Index
(F)
Pressure
Air Dwpt altimeter
(in)
sea level
(mb)
Rmks
1:56 am PDT NW 3.5 10.00 Fair -- 45.0 42.1 90% NA NA 29.89 1012.3
12:56 am PDT E 4.6 10.00 Fair -- 48.0 43.0 83% 46 NA 29.89 1012.2
11:56 pm PDT E 5.8 10.00 Fair -- 48.0 44.1 86% 45 NA 29.90 1012.5
10:56 pm PDT E 4.6 10.00 Fair -- 50.0 45.0 83% 48 NA 29.90 1012.6
9:56 pm PDT N 0.0 10.00 Fair -- 51.0 46.0 83% NA NA 29.89 1012.3
8:56 pm PDT 10.00 Fair -- 52.0 46.9 83% NA NA 29.87 1011.6
7:56 pm PDT W 8.1 10.00 Fair -- 54.0 46.9 77% 52 NA 29.86 1011.2
6:56 pm PDT W 13.8 10.00 Fair -- 56.0 48.0 75% 53 NA 29.84 1010.7
5:56 pm PDT W 13.8 10.00 Fair -- 61.0 48.9 65% 59 NA 29.83 1010.1
4:56 pm PDT W 15.0 10.00 Fair -- 62.0 50.0 65% 60 NA 29.82 1009.7
2:56 pm PDT W 17.3 10.00 Fair -- 66.0 50.0 56% NA NA 29.81 1009.5
1:56 pm PDT NW 16.1 10.00 Fair -- 66.0 50.0 56% NA NA 29.80 1009.2
12:56 pm PDT W 17.3 10.00 Fair -- 66.0 50.0 56% NA NA 29.80 1009.3
11:56 am PDT NW 13.8 9.00 Fair -- 64.0 50.0 60% NA NA 29.81 1009.5
8:56 am PDT N 0.0 9.00 Overcast -- 59.0 50.0 72% NA NA 29.81 1009.7
7:56 am PDT N 0.0 6.00 Overcast with Haze -- 55.0 48.0 77% NA NA 29.81 1009.7
6:56 am PDT N 0.0 6.00 Overcast with Haze -- 53.0 48.0 83% NA NA 29.80 1009.4
4:56 am PDT NW 3.5 8.00 Overcast -- 53.0 46.9 80% NA NA 29.78 1008.5
2:56 am PDT 9.00 Overcast -- 53.0 46.0 77% NA NA 29.79 1008.9

Regional Weather Observation


Lompoc, Vandenberg Air Force Base, CA (KVBG)

Fair
45.0 F

Lompoc, Lompoc Airport, CA (KLPC)

Fair
45.0 F

Oceano County Airport, CA (KL52)

Fog/Mist
43.0 F

Santa Ynez, Santa Ynez Airport, CA (KIZA)

Fog/Mist
48.0 F

San Luis Obispo, San Luis Obispo County-Mc Chesney Field, CA (KSBP)

Fair
48.0 F

Paso Robles Municipal Airport, CA (KPRB)

Fair
49.0 F

Advertise Here


Advertise Here